CW1084 Weather Reports


Display with metric or nautical units.
time (UTC)temp
F
wind
direction
speed
MPH
gust
MPH
rain 1hr
in
rain 24hr
in
rain mn
in
humidity
%
barometer
mb
20260502170504 55 355 1.0 6.0 0.00 0.00 0.00 47 1012.0
20260502164215 56 101 0.0 5.0 0.00 0.00 0.00 46 1012.3
20260502163928 53 41 1.0 7.0 0.00 0.00 0.00 100 1010.4
20260502163854 53 329 0.0 7.0 0.00 0.00 0.00 100 1010.2
20260502163826 53 209 0.0 0.0 0.00 0.00 0.00 100 1010.2
20260502163719 56 149 0.0 6.0 0.00 0.00 0.00 47 1012.3
20260502163044 56 151 0.0 6.0 0.00 0.00 0.00 47 1012.1
20260502161848 55 348 0.0 4.0 0.00 0.00 0.00 47 1012.2
20260502161128 55 289 0.0 8.0 0.00 0.00 0.00 46 1012.4
20260502161109 53 209 0.0 0.0 0.00 0.00 0.00 100 1010.1
20260502160657 55 138 0.0 8.0 0.00 0.00 0.00 47 1012.3
20260502151805 54 346 0.0 5.0 0.00 0.00 0.00 47 1012.8
20260502150943 54 338 1.0 4.0 0.00 0.00 0.00 47 1012.7
20260502150238 55 170 1.0 5.0 0.00 0.00 0.00 46 1012.3
20260502150139 55 0 1.0 7.0 0.00 0.00 0.00 46 1012.2
20260502130455 53 127 0.0 6.0 0.00 0.00 0.00 45 1012.2
20260502123607 52 207 1.0 12.0 0.00 0.00 0.00 46 1011.8
20260502123552 55 209 0.0 6.0 0.00 0.00 0.00 32 1010.6
20260502123244 55 150 0.0 3.0 0.00 0.00 0.00 38 1010.8
20260502123205 55 144 0.0 3.0 0.00 0.00 0.00 39 1010.6
20260502123018 52 117 0.0 7.0 0.00 0.00 0.00 46 1011.9
20260502122738 56 167 0.0 0.0 0.00 0.00 0.00 44 1010.5
20260502122604 52 74 1.0 12.0 0.00 0.00 0.00 45 1011.8
20260502121959 56 167 0.0 7.0 0.00 0.00 0.00 46 1010.4
20260502121942 56 167 0.0 0.0 0.00 0.00 0.00 46 1010.4
20260502121904 56 210 1.0 9.0 0.00 0.00 0.00 47 1010.3
20260502121845 56 167 1.0 8.0 0.00 0.00 0.00 47 1010.4
20260502121827 52 345 1.0 12.0 0.00 0.00 0.00 45 1011.9
20260502121800 56 163 0.0 6.0 0.00 0.00 0.00 47 1010.6
20260502121458 56 222 0.0 11.0 0.00 0.00 0.00 46 1010.7
20260502120836 52 332 1.0 12.0 0.00 0.00 0.00 45 1011.9
20260502114950 52 182 1.0 10.0 0.00 0.00 0.00 44 1012.0
20260502114843 52 355 1.0 13.0 0.00 0.00 0.00 43 1012.1
20260502114353 53 46 1.0 13.0 0.00 0.00 0.00 43 1012.0
20260502112648 53 269 0.0 7.0 0.00 0.00 0.00 42 1011.9
20260502112149 53 322 1.0 7.0 0.00 0.00 0.00 42 1011.9
20260502111617 53 9 1.0 8.0 0.00 0.00 0.00 41 1011.7
20260502111151 53 221 1.0 8.0 0.00 0.00 0.00 41 1011.6
20260502110200 53 5 0.0 6.0 0.00 0.00 0.00 40 1011.7
20260502105446 53 303 0.0 5.0 0.00 0.00 0.00 40 1011.6
20260502103928 53 279 1.0 1.0 0.00 0.00 0.00 38 1011.4
20260502103823 53 96 1.0 8.0 0.00 0.00 0.00 37 1011.4
20260502101344 53 318 0.0 5.0 0.00 0.00 0.00 29 1011.3
20260502100612 53 307 0.0 4.0 0.00 0.00 0.00 25 1011.1
20260502071337 53 209 0.0 0.0 0.00 0.00 0.00 100 1010.0
20260502070737 53 209 0.0 0.0 0.00 0.00 0.00 100 1010.0
20260502065640 53 209 0.0 0.0 0.00 0.00 0.00 100 1010.0
20260502065235 53 209 0.0 0.0 0.00 0.00 0.00 100 1010.0
20260502064813 53 209 0.0 0.0 0.00 0.00 0.00 100 1010.0
20260502064100 54 209 0.0 0.0 0.00 0.00 0.00 100 1010.1
20260502063912 54 209 0.0 0.0 0.00 0.00 0.00 100 1010.2
20260502062058 58 203 1.0 8.0 0.00 0.00 0.00 57 1009.5
20260502062035 58 154 1.0 8.0 0.00 0.00 0.00 56 1009.7
20260502062014 59 148 1.0 10.0 0.00 0.00 0.00 56 1009.7
20260502061924 59 177 1.0 10.0 0.00 0.00 0.00 57 1009.7
20260502061839 54 209 0.0 0.0 0.00 0.00 0.00 100 1010.5
20260502055637 59 177 2.0 9.0 0.00 0.00 0.00 57 1009.8
20260502055610 54 209 0.0 0.0 0.00 0.00 0.00 100 1010.9
20260502055505 54 209 0.0 0.0 0.00 0.00 0.00 100 1011.0
20260502055416 54 209 0.0 0.0 0.00 0.00 0.00 100 1011.0
20260502055315 54 209 0.0 0.0 0.00 0.00 0.00 100 1011.0
20260502054644 54 209 0.0 0.0 0.00 0.00 0.00 100 1011.0
20260502052615 55 209 0.0 0.0 0.00 0.00 0.00 100 1010.7
20260502052152 55 209 0.0 0.0 0.00 0.00 0.00 100 1010.7
20260502051421 55 209 0.0 0.0 0.00 0.00 0.00 100 1010.7
20260502045956 55 209 0.0 0.0 0.00 0.00 0.00 100 1010.6
20260502044455 55 209 0.0 0.0 0.00 0.00 0.00 7 1010.6
20260502043920 55 209 0.0 0.0 0.00 0.00 0.00 10 1010.7
20260502043828 55 209 0.0 0.0 0.00 0.00 0.00 13 1010.7
20260502043219 55 209 0.0 0.0 0.00 0.00 0.00 17 1010.6
20260502041501 55 209 0.0 4.0 0.00 0.00 0.00 26 1010.7
20260502041402 55 209 0.0 4.0 0.00 0.00 0.00 29 1010.6
20260502041308 55 209 0.0 6.0 0.00 0.00 0.00 32 1010.6
20260502040511 55 182 0.0 6.0 0.00 0.00 0.00 35 1010.6
20260502034451 55 144 0.0 7.0 0.00 0.00 0.00 41 1010.7
20260502034336 55 143 0.0 7.0 0.00 0.00 0.00 42 1010.6
20260502033746 55 169 0.0 4.0 0.00 0.00 0.00 43 1010.7
20260502033101 56 167 0.0 0.0 0.00 0.00 0.00 44 1010.5
20260502032103 56 167 0.0 0.0 0.00 0.00 0.00 45 1010.4
20260502031343 56 167 0.0 7.0 0.00 0.00 0.00 46 1010.4
20260502030730 56 167 0.0 0.0 0.00 0.00 0.00 46 1010.4
20260502025057 56 196 0.0 7.0 0.00 0.00 0.00 47 1010.5
20260502024537 56 163 0.0 6.0 0.00 0.00 0.00 47 1010.6
20260502023625 56 165 1.0 9.0 0.00 0.00 0.00 47 1010.6
20260502022934 56 181 0.0 9.0 0.00 0.00 0.00 47 1010.7
20260502022104 56 142 0.0 8.0 0.00 0.00 0.00 46 1010.7
20260502021847 56 166 0.0 7.0 0.00 0.00 0.00 46 1010.6
20260502021228 56 186 0.0 1.0 0.00 0.00 0.00 45 1010.7
20260502021112 56 171 0.0 8.0 0.00 0.00 0.00 45 1010.7
20260502021005 56 216 1.0 5.0 0.00 0.00 0.00 45 1010.8
20260502020540 57 146 1.0 11.0 0.00 0.00 0.00 47 1010.7
20260502015641 57 130 0.0 15.0 0.00 0.00 0.00 51 1010.5
20260502015536 57 128 0.0 15.0 0.00 0.00 0.00 52 1010.4
20260502013953 57 164 1.0 8.0 0.00 0.00 0.00 54 1010.3
20260502013032 57 183 1.0 8.0 0.00 0.00 0.00 56 1010.1
20260502012025 58 166 1.0 12.0 0.00 0.00 0.00 58 1010.0
20260502010301 57 169 1.0 12.0 0.00 0.00 0.00 56 1009.9
20260502003226 58 210 0.0 7.0 0.00 0.00 0.00 58 1009.9
20260502000139 58 171 0.0 6.0 0.00 0.00 0.00 58 1009.7
20260501234654 58 174 0.0 6.0 0.00 0.00 0.00 57 1009.7
20260501234123 58 129 0.0 6.0 0.00 0.00 0.00 57 1009.8
20260501233430 58 152 0.0 8.0 0.00 0.00 0.00 57 1009.7
20260501232538 58 144 1.0 6.0 0.00 0.00 0.00 57 1009.7
20260501232051 58 160 1.0 11.0 0.00 0.00 0.00 57 1009.7
20260501224807 59 168 1.0 10.0 0.00 0.00 0.00 56 1009.6
20260501224753 60 91 2.0 9.0 0.00 0.00 0.00 55 1009.9
20260501224729 60 200 1.0 9.0 0.00 0.00 0.00 53 1010.0
20260501223604 59 144 2.0 10.0 0.00 0.00 0.00 57 1009.7
20260501222920 60 147 1.0 9.0 0.00 0.00 0.00 56 1009.9
20260501220852 60 109 1.0 9.0 0.00 0.00 0.00 50 1010.1
20260501220520 62 187 1.0 9.0 0.00 0.00 0.00 46 1010.1
20260501220500 62 134 2.0 8.0 0.00 0.00 0.00 47 1010.2
20260501220422 63 142 1.0 9.0 0.00 0.00 0.00 46 1010.2
20260501220357 64 148 1.0 9.0 0.00 0.00 0.00 45 1010.3
20260501220233 60 167 2.0 12.0 0.00 0.00 0.00 49 1010.1
20260501220027 64 68 0.0 5.0 0.00 0.00 0.00 44 1010.3
20260501215727 65 134 1.0 9.0 0.00 0.00 0.00 43 1010.5
20260501215544 64 196 2.0 11.0 0.00 0.00 0.00 42 1010.5
20260501215147 61 157 0.0 6.0 0.00 0.00 0.00 48 1010.1
20260501214759 62 193 1.0 9.0 0.00 0.00 0.00 48 1010.1
20260501214342 62 187 1.0 9.0 0.00 0.00 0.00 46 1010.1
20260501212916 62 125 3.0 8.0 0.00 0.00 0.00 45 1010.1
20260501212817 63 159 2.0 8.0 0.00 0.00 0.00 46 1010.1
20260501212505 63 142 1.0 9.0 0.00 0.00 0.00 46 1010.2
20260501205937 64 188 1.0 11.0 0.00 0.00 0.00 41 1010.7
20260501205824 63 125 2.0 8.0 0.00 0.00 0.00 40 1010.8
20260501205803 63 167 2.0 10.0 0.00 0.00 0.00 41 1010.9
20260501205711 65 132 1.0 7.0 0.00 0.00 0.00 44 1010.4
20260501205319 65 133 1.0 7.0 0.00 0.00 0.00 43 1010.4
20260501204749 65 134 1.0 9.0 0.00 0.00 0.00 43 1010.5
20260501204515 65 159 2.0 9.0 0.00 0.00 0.00 42 1010.5
20260501202548 64 144 2.0 8.0 0.00 0.00 0.00 41 1010.9
20260501200547 63 209 2.0 10.0 0.00 0.00 0.00 41 1010.9
20260501195800 63 157 3.0 11.0 0.00 0.00 0.00 41 1011.1
20260501195742 63 140 2.0 11.0 0.00 0.00 0.00 41 1011.3
20260501194810 63 140 2.0 10.0 0.00 0.00 0.00 42 1011.3
20260501194400 64 111 1.0 6.0 0.00 0.00 0.00 43 1011.5
20260501194324 63 167 3.0 10.0 0.00 0.00 0.00 43 1011.5
20260501193809 64 115 1.0 10.0 0.00 0.00 0.00 42 1011.4
20260501192757 64 97 1.0 6.0 0.00 0.00 0.00 45 1011.5
20260501192749 63 165 2.0 9.0 0.00 0.00 0.00 44 1011.7
20260501192242 63 165 2.0 9.0 0.00 0.00 0.00 44 1011.7
20260501191506 63 142 1.0 9.0 0.00 0.00 0.00 43 1011.6
20260501190759 63 145 1.0 10.0 0.00 0.00 0.00 42 1011.8
20260501190630 63 139 2.0 10.0 0.00 0.00 0.00 46 1011.9
20260501185905 63 154 2.0 8.0 0.00 0.00 0.00 44 1011.9
20260501185103 64 148 1.0 8.0 0.00 0.00 0.00 44 1012.0
20260501184717 64 158 1.0 10.0 0.00 0.00 0.00 43 1012.2
20260501184643 64 254 1.0 8.0 0.00 0.00 0.00 43 1012.0
20260501184158 64 163 1.0 3.0 0.00 0.00 0.00 43 1012.1
20260501183523 65 188 1.0 8.0 0.00 0.00 0.00 42 1012.1
20260501183213 65 150 1.0 6.0 0.00 0.00 0.00 41 1012.2
20260501182605 64 158 1.0 10.0 0.00 0.00 0.00 43 1012.2
20260501181755 63 125 1.0 7.0 0.00 0.00 0.00 40 1012.3
20260501181140 63 132 1.0 7.0 0.00 0.00 0.00 39 1012.4
20260501180726 63 148 1.0 3.0 0.00 0.00 0.00 37 1012.2
20260501180656 63 104 1.0 3.0 0.00 0.00 0.00 37 1012.3
20260501180309 63 167 2.0 8.0 0.00 0.00 0.00 37 1012.3
20260501175543 63 148 1.0 3.0 0.00 0.00 0.00 37 1012.2
20260501174911 63 128 1.0 7.0 0.00 0.00 0.00 36 1012.3
20260501174247 63 151 1.0 7.0 0.00 0.00 0.00 35 1012.3
20260501173732 63 148 1.0 7.0 0.00 0.00 0.00 34 1012.4
20260501173203 63 147 1.0 7.0 0.00 0.00 0.00 33 1012.5
20260501172609 63 146 1.0 5.0 0.00 0.00 0.00 34 1012.6
20260501172423 63 148 1.0 7.0 0.00 0.00 0.00 37 1012.6
20260501171627 62 149 1.0 7.0 0.00 0.00 0.00 36 1012.6